Regional Weather Roundup
Issued by NWS

Home | Current Version | Previous Version | Graphics & Text | Print | Product List | Glossary On
Versions: 1 2 3 4 5 6 7 8 9 10 11 12 13 14 15 16 17 18 19 20 21 22 23 24 25 26 27 28 29 30 31 32 33 34 35 36 37 38 39 40 41 42 43 44 45 46 47 48 49 50
000
ASUS43 KLSX 221007
RWRMO

WEATHER SUMMARY FOR MISSOURI
NATIONAL WEATHER SERVICE SPRINGFIELD MO
400 AM CST MON DEC 22 2014

NOTE: "FAIR" INDICATES FEW OR NO CLOUDS BELOW 12,000 FEET WITH NO
       SIGNIFICANT WEATHER AND/OR OBSTRUCTIONS TO VISIBILITY.
       CURRENT SKY AND/OR WEATHER CONDITIONS ARE NOT AVAILABLE FOR
       CHILLICOTHE AND FARMINGTON.

MOZ001>031-035>038-043-044-053-054-221100-
...NORTHERN AND WESTERN MISSOURI...

CITY           SKY/WX    TMP DP  RH WIND       PRES   REMARKS
KANSAS CTY INT LGT RAIN  41  40  96 SE12      29.64F FOG
KANSAS C DTWN  LGT RAIN  43  39  86 SE8       29.65F FOG
LEE`S SUMMIT   CLOUDY    41  38  89 SE8       29.66F
ST JOSEPH      LGT RAIN  42  39  89 S10       29.65F FOG
CHILLICOTHE      N/A     42  36  79 SE8       29.71F
KIRKSVILLE     CLOUDY    39  36  89 SE13      29.74F

$$
MOZ066>068-077>081-088>096-101>105-221100-
...SOUTHWEST MISSOURI...

CITY           SKY/WX    TMP DP  RH WIND       PRES   REMARKS
SPRINGFIELD    CLOUDY    43  36  76 SE14      29.67F
JOPLIN         CLOUDY    45  42  89 SE9       29.65F

$$
MOZ032>034-039>042-045>050-055>058-069>072-221100-
...CENTRAL MISSOURI...

CITY           SKY/WX    TMP DP  RH WIND       PRES   REMARKS
COLUMBIA       LGT RAIN  40  36  86 E12       29.74F
JEFFERSON CITY CLOUDY    41  35  79 E7        29.75F
ROLLA          CLOUDY    42  33  70 SE8       29.73F
SEDALIA        CLOUDY    42  37  82 SE10      29.71F
WHITEMAN AFB   MOCLDY    42  38  85 S8        29.69F
WARRENSBURG    CLOUDY    41  36  81 SE10      29.68F
OSAGE BEACH    CLOUDY    43  34  70 SE9       29.71F

$$
MOZ051-052-059>065-221100-
...EAST CENTRAL MISSOURI...

CITY           SKY/WX    TMP DP  RH WIND       PRES   REMARKS
ST LOUIS INTL  CLOUDY    41  33  73 E10       29.84F
SPIRIT OF STL  CLOUDY    42  32  67 SE7       29.82F
ST CHARLES     LGT RAIN  39  34  82 E12       29.84F

$$
MOZ072>076-082>087-097>100-106>115-221100-
...SOUTH CENTRAL AND SOUTHEAST MISSOURI...

CITY           SKY/WX    TMP DP  RH WIND       PRES   REMARKS
CAPE GIRARDEAU CLOUDY    43  38  82 SE7       29.86F
FARMINGTON     CLOUDY    41  34  75 E7        29.82F
POPLAR BLUFF   CLOUDY    43  37  79 E6        29.83F
WEST PLAINS    CLOUDY    42  35  76 SE10      29.75F

$$



USA.gov is the U.S. government's official web portal to all federal, state and local government web resources and services.